Temperature
16 13 13 14 14 15 15 15 15 15 16 16 14 15 15 16 15 15 15 15 15 15 15 15 15 15 15 15 14 14 14 13 12 12 12 11 11 10 10 10 9 9 9 9
13 13 14 15 15 15 15 15 15 15 16 15 14 14 15 14 14 15 15 14 15 14 14 14 15 14 14 14 14 14 13 13 12 12 12 11 11 10 10 10 9 9 9 9
13 14 15 15 15 15 15 15 15 15 15 15 15 14 14 14 15 15 15 15 15 15 14 14 14 14 14 14 14 14 13 13 12 12 12 11 11 10 10 10 9 9 9 8
13 14 15 15 15 15 14 15 15 15 14 13 14 12 13 14 14 13 13 13 13 14 14 14 14 14 14 14 13 13 13 13 12 12 12 11 11 11 10 10 9 9 8 8
13 14 14 15 15 15 15 16 16 15 14 13 12 12 13 13 13 12 11 12 13 13 14 14 14 13 13 13 13 13 13 12 12 12 11 11 11 10 10 9 9 8 8 8
13 15 15 15 16 15 15 15 14 12 11 11 12 11 12 13 13 13 11 12 13 13 13 13 13 13 13 12 12 12 12 12 12 12 11 11 11 10 9 9 9 8 8 7
14 15 15 15 15 15 14 13 12 12 10 11 12 11 12 14 14 13 12 12 12 13 13 13 13 12 12 12 12 12 12 12 11 11 11 11 10 10 9 9 8 8 7 7
12 13 14 14 14 13 13 13 12 12 11 11 13 12 13 14 14 15 14 13 12 12 13 13 13 13 12 12 12 12 12 11 11 11 10 10 10 9 9 8 8 7 7 6
12 12 14 14 14 14 12 12 13 12 12 12 12 12 14 15 14 13 13 12 12 12 13 13 13 13 12 12 12 12 11 11 11 10 10 10 9 9 8 8 7 7 6 6
13 12 14 14 14 14 13 12 11 11 11 11 12 13 14 15 14 12 11 11 11 12 13 13 13 13 12 12 12 11 11 11 10 10 10 9 9 8 8 7 7 6 6 5
13 12 12 13 13 12 13 13 12 11 10 10 11 13 14 14 13 12 11 12 12 12 13 13 13 13 12 12 11 11 10 10 10 9 9 9 8 8 7 7 6 6 5 5
12 11 11 11 12 13 13 12 12 11 11 10 10 12 14 13 13 13 13 13 13 13 13 13 13 12 12 11 11 10 10 10 9 9 8 8 7 7 7 6 6 5 5 5
12 11 11 11 12 12 12 12 12 12 11 10 10 13 14 13 14 14 14 14 14 13 13 13 13 12 12 11 10 10 9 9 9 8 8 7 7 7 6 6 5 5 4 4
13 11 11 12 12 12 11 12 12 12 11 10 11 12 14 14 14 13 14 14 14 14 13 13 12 12 11 11 10 9 9 9 8 8 7 7 6 6 5 5 5 4 4 4
12 11 11 12 13 12 12 13 12 12 12 12 12 13 14 14 13 14 15 14 14 13 13 13 12 11 11 10 9 9 9 8 8 7 7 6 6 5 5 5 4 4 3 3
11 11 11 12 13 12 12 12 12 12 12 12 12 13 13 14 14 14 14 13 13 13 13 12 12 11 10 10 9 9 8 8 7 7 6 6 5 5 4 4 3 3 3 2
10 11 11 10 12 12 11 12 12 12 12 12 13 14 14 13 11 13 14 13 13 13 13 12 11 10 10 9 9 8 8 7 6 6 6 5 5 4 4 3 3 2 2 2
9 10 9 9 11 10 12 12 13 13 13 12 12 13 12 12 13 13 14 14 13 13 12 11 10 10 9 9 8 8 7 6 6 5 5 5 4 4 3 3 2 2 1 1
9 10 9 8 9 9 11 12 12 12 12 12 12 12 11 11 11 11 12 13 13 12 12 11 10 9 9 8 7 7 6 6 5 5 4 4 3 3 2 2 2 1 1 1
8 9 8 7 9 9 11 13 13 13 12 12 11 10 9 10 9 10 12 12 12 11 10 9 9 8 8 7 7 6 6 5 5 4 4 3 3 2 2 1 1 1 0 -0
8 8 7 7 8 8 10 12 12 12 12 13 12 11 10 9 10 12 11 11 10 10 9 9 8 7 7 6 6 5 5 4 4 3 3 3 2 2 1 1 1 0 -0 -1
9 8 7 7 7 8 10 10 11 12 12 12 12 12 11 11 11 11 10 10 9 8 8 7 7 6 6 5 5 4 4 3 3 3 2 2 2 1 1 0 -0 -0 -1 -1
8 9 9 9 10 10 11 12 13 13 13 13 13 13 12 11 10 9 9 8 8 7 7 6 6 6 5 4 4 4 3 3 2 2 2 1 1 1 0 -0 -1 -1 -1 -2
7 8 8 8 8 9 11 12 12 13 13 13 12 12 12 11 10 9 8 7 7 6 6 6 5 5 4 4 3 3 2 2 2 2 1 1 0 0 -0 -1 -1 -2 -2 -3
8 7 7 8 8 8 9 11 12 12 12 12 11 11 11 10 9 8 7 6 6 5 5 5 4 4 3 3 3 2 2 1 1 1 0 0 -0 -1 -1 -1 -2 -2 -3 -4
6 7 8 9 8 8 10 12 11 11 11 11 10 10 9 9 8 7 6 6 5 5 4 4 3 3 3 3 2 2 1 1 0 0 -0 -0 -1 -1 -2 -2 -2 -3 -3 -4
Wind_Speed
5 4 7 10 11 8 6 5 8 8 6 6 10 13 14 10 8 9 9 10 9 8 5 4 5 6 7 7 8 7 8 7 7 5 4 4 3 2 2 2 2 2 3 3
4 7 12 9 7 7 7 8 8 8 4 4 8 12 12 11 10 12 14 14 12 9 7 6 5 5 5 6 7 7 8 7 6 5 4 3 3 2 1 1 2 1 1 1
11 8 8 8 8 8 8 7 7 7 6 5 5 9 8 7 6 7 11 13 13 14 13 9 7 6 6 6 7 7 7 7 7 6 5 5 4 3 2 2 1 2 1 1
9 8 6 7 8 9 8 8 7 5 2 5 2 6 9 6 5 7 10 11 13 12 11 10 9 8 7 6 6 7 7 7 7 7 6 6 4 3 2 1 1 2 2 1
9 8 9 10 10 10 9 5 4 3 3 4 3 5 9 5 7 10 12 14 14 13 13 12 10 9 7 6 7 7 8 7 6 7 7 7 4 3 1 1 1 2 3 3
8 6 9 11 7 7 5 3 4 4 3 5 7 8 8 7 10 9 12 14 14 14 12 11 9 8 7 6 6 7 8 6 6 7 7 7 6 5 3 2 1 1 2 2
6 6 4 6 5 3 5 5 2 4 1 8 5 6 11 11 10 11 17 18 16 15 14 13 12 10 9 9 8 7 8 7 6 7 6 6 6 5 5 3 2 1 1 1
9 8 8 7 9 9 7 10 7 6 6 6 3 8 9 8 6 8 12 15 15 15 14 15 14 13 11 10 9 9 9 7 7 7 6 5 5 4 3 2 2 2 2 2
11 9 4 7 7 12 8 7 8 4 3 5 7 8 9 4 3 4 11 14 17 17 16 15 14 13 12 11 10 10 9 7 7 7 6 5 5 4 3 2 1 1 2 2
10 6 3 2 4 4 9 9 5 5 5 6 7 7 6 8 6 6 12 16 16 15 14 14 15 14 12 11 9 9 9 8 7 7 6 5 4 4 3 2 1 1 2 2
8 7 3 2 9 11 7 6 6 6 5 6 5 7 6 8 8 10 14 16 17 18 18 16 15 13 12 10 10 9 9 8 7 7 5 5 3 3 2 1 1 2 2 3
9 7 6 8 6 6 9 10 9 6 7 6 4 8 7 5 7 9 12 12 14 16 15 14 13 12 12 12 11 10 9 8 7 6 6 5 3 2 1 1 2 2 3 3
11 8 5 2 3 3 6 8 10 7 4 5 6 8 5 3 2 5 8 10 12 12 12 11 12 13 13 13 11 10 9 8 7 6 6 4 3 2 2 3 3 3 4 5
11 7 9 11 8 8 8 9 11 10 7 8 10 10 8 6 5 6 7 9 10 11 12 13 13 12 12 11 11 10 9 8 7 6 5 4 3 4 4 4 4 4 5 6
9 8 8 7 6 6 9 10 13 14 13 11 11 12 14 11 10 9 8 8 9 10 12 14 13 12 11 11 10 9 8 7 6 6 5 4 4 4 4 4 5 5 6 7
6 8 8 7 8 8 8 10 11 13 12 13 12 13 11 7 5 6 8 9 11 11 12 12 12 13 13 12 11 9 8 7 6 6 5 4 4 4 5 6 6 6 7 7
8 8 7 6 5 3 8 10 11 8 9 10 15 18 10 6 8 10 10 11 12 12 11 12 13 13 12 11 11 10 8 6 6 5 4 4 4 5 6 6 6 7 7 7
10 9 6 4 4 8 9 7 10 10 10 11 10 9 8 9 6 4 6 10 10 10 11 11 10 10 9 8 8 8 7 6 5 4 4 4 5 6 6 6 7 8 7 8
6 8 6 5 6 7 8 6 7 9 10 8 10 9 4 4 4 3 2 5 8 9 9 9 9 9 9 9 8 8 6 5 4 4 5 5 5 6 6 7 8 8 7 8
4 5 6 6 6 8 9 6 4 5 7 7 7 8 7 8 3 5 3 5 7 8 9 9 9 9 9 7 7 7 5 4 4 5 6 6 6 7 8 8 9 7 7 9
5 4 6 6 7 8 9 4 6 6 9 4 7 8 10 9 6 4 7 6 8 9 9 10 10 9 7 7 7 5 4 5 6 5 5 6 6 7 8 8 7 8 8 9
11 9 8 7 6 10 7 8 9 9 3 5 6 7 8 6 6 7 8 9 10 9 9 9 9 7 5 6 6 4 4 5 5 5 6 7 7 7 7 8 8 8 8 9
10 11 9 10 10 6 7 9 6 6 6 6 6 6 8 8 7 7 8 9 8 9 8 7 8 6 4 4 4 4 5 4 4 5 6 7 8 7 7 8 9 8 8 8
6 4 6 5 7 5 5 4 4 6 6 6 6 8 9 8 9 9 9 8 8 7 7 6 7 5 3 3 3 4 5 4 5 6 7 7 7 8 8 7 7 7 8 8
8 8 6 6 4 2 4 7 6 5 5 6 6 6 9 10 9 9 8 8 7 6 5 5 5 4 4 3 3 4 4 4 5 7 7 7 7 8 8 8 7 9 8 10
6 8 9 8 9 8 8 7 8 8 7 8 8 6 6 9 10 9 8 7 6 6 5 4 4 3 3 3 5 5 5 5 6 7 7 6 6 7 7 8 10 13 15 21
Wind_Direction
163 134 197 209 204 208 214 236 261 262 254 219 236 251 256 247 226 216 204 188 181 174 162 125 101 98 98 104 112 118 122 128 127 123 123 120 120 105 86 103 141 174 201 214
125 218 220 214 210 213 226 248 264 279 282 232 258 264 259 242 221 209 197 188 178 167 156 138 119 106 108 117 116 118 122 127 129 128 127 124 122 110 105 69 73 103 171 202
190 218 214 210 219 221 233 228 241 260 309 313 298 294 274 264 227 210 195 183 175 170 164 156 144 132 127 131 135 130 127 124 122 121 109 91 74 58 46 28 0 355 49 198
217 233 207 205 219 203 240 232 223 236 269 282 277 288 282 263 249 210 191 180 178 171 162 158 155 150 150 151 138 128 126 122 121 121 125 129 133 145 181 194 310 343 11 7
222 206 202 214 218 195 215 214 203 220 218 277 247 234 278 262 241 226 201 189 183 174 167 163 163 158 153 149 141 134 125 121 121 120 127 126 126 141 128 81 52 10 359 4
222 219 200 207 208 191 166 95 33 46 86 269 227 202 271 238 223 216 198 191 184 174 167 160 155 146 144 145 142 138 132 129 128 126 129 136 141 142 130 114 85 357 343 347
237 243 218 159 141 133 127 113 353 320 297 249 224 204 248 250 231 206 193 189 183 175 168 164 162 162 160 161 159 153 145 142 141 135 138 146 149 150 153 160 163 175 319 311
200 237 213 188 174 175 181 162 183 222 236 275 257 226 252 266 269 213 185 177 174 176 175 173 173 170 169 170 167 161 157 153 151 146 148 149 149 148 160 170 173 197 228 257
189 226 229 202 185 159 163 196 189 180 262 272 272 277 299 281 346 148 159 167 180 182 181 179 176 174 173 173 174 170 164 159 160 158 152 151 151 151 162 171 173 211 248 262
163 203 229 207 123 169 163 163 139 170 209 244 270 265 252 262 238 185 177 183 186 185 185 183 182 180 178 175 171 168 164 164 164 161 161 158 162 165 167 161 199 264 284 295
162 179 216 183 187 185 160 168 176 183 192 190 250 266 236 246 223 199 198 193 188 188 190 189 187 182 175 168 165 167 166 160 161 162 157 151 163 165 159 171 240 270 285 298
164 157 202 232 241 199 186 186 172 185 228 207 211 267 281 283 233 202 201 198 195 194 193 189 182 175 172 171 170 169 167 164 166 161 154 157 161 152 165 228 260 270 282 287
159 154 166 268 277 199 206 206 198 193 185 195 202 260 298 333 260 214 206 202 196 193 189 183 179 179 178 175 171 167 166 165 161 155 152 154 162 176 217 243 260 271 280 288
151 153 184 198 203 185 200 212 201 193 211 227 227 249 278 279 261 240 220 206 195 191 188 184 183 181 176 171 167 164 164 162 158 154 157 172 197 213 230 245 258 268 274 282
143 176 198 212 212 179 202 211 203 205 213 219 236 238 248 247 238 230 217 198 187 188 187 186 182 175 168 163 162 160 159 160 158 158 172 200 218 227 239 253 263 270 274 274
140 170 185 221 223 213 226 227 213 215 222 230 246 258 246 243 221 215 207 194 194 195 190 182 174 168 167 165 161 157 161 165 161 169 194 214 227 241 252 259 266 272 275 276
155 150 163 216 223 206 242 222 210 208 209 204 229 245 243 226 218 215 208 199 200 195 183 175 172 169 166 163 159 162 165 160 162 181 208 227 239 252 258 264 270 272 273 274
153 151 156 175 162 223 240 225 208 215 232 218 225 241 228 223 219 218 203 195 196 184 172 166 158 153 150 148 148 147 148 156 170 195 226 242 247 256 264 269 270 270 269 271
151 148 146 160 203 258 284 245 194 203 247 229 224 233 200 130 81 332 261 192 185 172 158 152 147 142 140 143 144 141 149 160 182 220 240 248 248 255 264 267 268 269 271 273
105 130 142 155 184 223 237 229 184 152 255 242 200 196 171 139 169 245 201 143 133 129 131 131 129 126 133 141 140 142 160 179 218 236 246 251 248 250 258 262 267 269 270 271
148 149 170 179 210 247 246 217 127 178 240 215 180 178 169 184 199 172 132 122 127 126 126 128 127 131 140 141 137 149 176 219 237 246 253 258 256 255 259 264 267 272 276 278
174 177 187 177 204 244 221 152 183 211 177 161 167 171 172 166 126 129 131 131 129 124 123 126 126 129 135 139 143 169 220 240 251 256 261 264 265 267 270 268 274 275 277 281
194 190 186 193 212 230 187 196 202 161 165 176 169 167 151 145 150 144 140 137 133 131 131 128 132 133 138 151 160 199 237 250 257 263 266 268 272 271 271 271 277 282 280 281
232 177 162 211 242 229 209 199 175 172 175 172 163 157 154 156 154 147 144 141 137 133 133 131 134 144 170 194 203 220 246 256 260 268 273 274 276 279 278 274 273 277 279 281
197 170 176 212 232 168 225 208 187 160 142 136 136 153 158 148 150 151 150 148 144 137 135 139 150 171 206 228 246 252 257 263 268 271 273 276 274 275 280 277 270 276 266 272
188 173 178 207 202 185 209 198 172 162 167 159 145 139 143 150 148 143 145 144 140 139 139 145 163 192 227 245 262 269 267 259 261 270 273 273 275 276 277 283 289 283 284 291
Height
1521 1527 1530 1528 1527 1528 1529 1531 1531 1526 1518 1519 1519 1515 1509 1506 1507 1507 1506 1507 1509 1510 1512 1513 1513 1514 1516 1517 1519 1522 1524 1526 1529 1531 1533 1535 1536 1538 1538 1539 1539 1539 1539 1539
1525 1526 1520 1519 1522 1525 1527 1530 1528 1522 1516 1517 1516 1512 1504 1501 1500 1499 1499 1501 1504 1507 1509 1510 1512 1513 1515 1517 1519 1521 1523 1525 1527 1530 1532 1534 1535 1536 1536 1537 1537 1537 1536 1536
1521 1517 1514 1518 1521 1524 1525 1526 1524 1522 1517 1514 1516 1513 1503 1496 1494 1494 1495 1496 1499 1502 1504 1507 1510 1512 1514 1516 1518 1520 1522 1524 1526 1529 1531 1532 1533 1534 1535 1535 1535 1534 1534 1533
1515 1512 1512 1515 1517 1519 1524 1517 1517 1518 1523 1526 1520 1526 1505 1496 1493 1492 1492 1493 1496 1499 1502 1505 1508 1510 1513 1515 1518 1520 1522 1524 1526 1528 1529 1531 1532 1532 1533 1533 1533 1532 1532 1531
1510 1507 1509 1512 1511 1512 1515 1511 1514 1515 1520 1526 1522 1525 1508 1496 1494 1489 1488 1489 1492 1496 1499 1503 1506 1509 1512 1515 1517 1519 1521 1523 1525 1527 1528 1530 1530 1531 1531 1531 1531 1530 1530 1529
1503 1501 1501 1503 1504 1506 1509 1513 1517 1523 1526 1532 1520 1525 1512 1495 1485 1482 1484 1486 1489 1493 1497 1501 1505 1508 1511 1514 1517 1519 1521 1522 1524 1526 1527 1528 1529 1529 1529 1529 1528 1528 1527 1526
1503 1500 1498 1498 1504 1506 1510 1521 1533 1532 1537 1530 1513 1516 1503 1479 1475 1474 1476 1480 1485 1490 1494 1498 1502 1505 1509 1512 1515 1518 1520 1521 1523 1525 1526 1527 1527 1527 1527 1527 1526 1525 1525 1524
1507 1506 1497 1495 1498 1506 1509 1515 1530 1535 1533 1523 1509 1510 1489 1473 1470 1469 1472 1477 1483 1488 1492 1495 1499 1503 1507 1510 1513 1516 1518 1520 1522 1523 1524 1525 1525 1525 1525 1524 1524 1523 1522 1521
1499 1501 1491 1490 1490 1496 1508 1512 1510 1521 1522 1523 1512 1498 1482 1470 1469 1469 1472 1477 1480 1484 1489 1493 1497 1501 1505 1508 1511 1514 1517 1518 1520 1521 1522 1523 1523 1523 1522 1522 1521 1520 1519 1517
1487 1496 1490 1489 1490 1492 1496 1502 1513 1520 1527 1526 1512 1500 1489 1473 1471 1471 1473 1474 1477 1482 1486 1490 1494 1498 1502 1506 1509 1512 1515 1516 1518 1519 1520 1520 1521 1520 1520 1519 1518 1517 1515 1514
1481 1492 1493 1491 1492 1494 1497 1500 1504 1511 1515 1520 1516 1499 1474 1470 1467 1468 1469 1471 1474 1478 1482 1486 1490 1495 1499 1503 1506 1509 1511 1513 1515 1516 1517 1518 1518 1517 1517 1516 1514 1513 1512 1510
1476 1487 1494 1491 1485 1484 1487 1490 1498 1509 1509 1508 1510 1496 1467 1466 1464 1464 1466 1469 1472 1475 1479 1483 1487 1491 1495 1499 1502 1505 1508 1510 1512 1513 1514 1514 1514 1514 1513 1512 1511 1509 1507 1505
1471 1483 1494 1494 1492 1487 1487 1486 1488 1492 1498 1505 1507 1492 1467 1465 1464 1464 1465 1467 1470 1473 1477 1480 1484 1487 1490 1494 1498 1501 1504 1507 1509 1510 1511 1511 1511 1510 1510 1509 1507 1505 1503 1501
1461 1474 1480 1484 1481 1479 1482 1481 1481 1487 1495 1497 1493 1483 1470 1466 1465 1464 1464 1465 1467 1470 1473 1476 1479 1482 1486 1490 1494 1498 1501 1504 1505 1506 1507 1507 1507 1507 1506 1504 1503 1501 1498 1496
1458 1468 1470 1470 1468 1471 1472 1472 1474 1479 1479 1483 1477 1474 1466 1462 1461 1460 1461 1462 1464 1466 1469 1471 1474 1478 1482 1487 1491 1495 1498 1500 1502 1503 1503 1504 1503 1502 1501 1500 1498 1496 1493 1490
1456 1463 1466 1467 1465 1468 1468 1467 1469 1470 1470 1472 1471 1467 1457 1456 1457 1457 1458 1459 1460 1462 1464 1467 1470 1474 1478 1483 1487 1491 1494 1497 1498 1499 1499 1499 1499 1498 1497 1495 1493 1490 1488 1485
1456 1461 1468 1472 1465 1466 1471 1463 1462 1463 1461 1462 1464 1456 1451 1454 1453 1453 1453 1454 1455 1457 1460 1463 1466 1470 1475 1480 1485 1488 1491 1493 1494 1495 1495 1495 1494 1493 1491 1489 1487 1484 1481 1478
1452 1459 1466 1471 1470 1476 1461 1450 1450 1452 1451 1451 1450 1447 1447 1447 1448 1449 1450 1451 1452 1455 1458 1461 1465 1469 1474 1479 1483 1486 1488 1490 1490 1491 1491 1490 1489 1488 1486 1484 1481 1478 1475 1471
1445 1454 1465 1473 1472 1467 1456 1447 1447 1450 1449 1443 1444 1444 1445 1446 1447 1448 1448 1449 1451 1453 1456 1460 1464 1468 1473 1477 1480 1483 1485 1486 1486 1487 1486 1485 1484 1482 1480 1477 1474 1471 1468 1464
1446 1449 1461 1469 1469 1467 1451 1440 1439 1444 1448 1438 1438 1440 1443 1445 1451 1448 1446 1448 1450 1453 1456 1460 1464 1468 1472 1475 1478 1480 1481 1482 1482 1482 1481 1480 1479 1476 1474 1471 1468 1464 1460 1456
1450 1453 1458 1463 1463 1456 1441 1437 1440 1451 1444 1435 1435 1436 1439 1441 1443 1444 1445 1447 1450 1453 1456 1460 1463 1467 1470 1473 1475 1476 1477 1478 1478 1477 1476 1475 1473 1470 1467 1464 1461 1457 1452 1448
1440 1448 1454 1457 1460 1454 1433 1436 1438 1435 1432 1432 1433 1435 1437 1439 1440 1442 1444 1447 1450 1453 1456 1460 1463 1466 1469 1471 1472 1473 1474 1474 1473 1472 1470 1469 1466 1464 1461 1457 1453 1449 1445 1439
1430 1430 1433 1436 1436 1428 1426 1427 1427 1428 1430 1431 1432 1434 1436 1438 1439 1441 1444 1447 1450 1453 1456 1459 1462 1464 1466 1468 1469 1469 1470 1469 1468 1466 1464 1462 1459 1457 1453 1449 1445 1441 1436 1431
1424 1423 1427 1430 1426 1423 1423 1424 1425 1427 1428 1430 1432 1433 1435 1436 1438 1441 1444 1447 1450 1453 1456 1458 1461 1462 1464 1465 1465 1465 1465 1464 1462 1460 1458 1455 1452 1449 1445 1442 1437 1432 1428 1423
1415 1419 1422 1423 1421 1421 1421 1421 1423 1425 1427 1428 1430 1432 1433 1435 1438 1440 1443 1446 1449 1452 1455 1457 1459 1460 1461 1462 1461 1461 1460 1458 1456 1453 1451 1448 1444 1441 1436 1433 1429 1424 1420 1416
1410 1412 1416 1416 1414 1415 1416 1417 1420 1422 1424 1426 1428 1430 1432 1434 1436 1439 1442 1446 1448 1451 1453 1455 1456 1457 1457 1457 1457 1456 1454 1452 1449 1446 1443 1440 1436 1432 1428 1423 1418 1415 1412 1407